Weather observations for the past three days for
Torrance, Zamperini Field Airport
Imperial (Metric)
Date Time (pdt) Wind (mph) Vis. (mi.) Weather Sky Cond. Temperature (ºF) Relative Humidity Wind Chill (°F) Heat Index (°F) Pressure Precipitation (in)
Air Dwpt 6 hour altimeter (in) sea level (mb) 1 hr 3 hr 6 hr
Max. Min.
16 09:47 Calm 10.00 Partly Cloudy SCT065 71.6 60.8 69% 30.01 0.0
16 08:51 Vrbl 6 10.00 A Few Clouds FEW015 71.6 60.8 69% 30.02 0.0
16 07:47 Calm 10.00 A Few Clouds FEW012 68 60.8 78% 30.01 0.0
16 06:51 Calm 10.00 A Few Clouds FEW012 66.2 60.8 83% 29.99 0.0
15 19:50 W 9 10.00 A Few Clouds FEW070 66.2 60.8 83% 29.93 0.0
15 18:55 W 16 10.00 Clear SKC 69.8 60.8 73% 29.93 0.0
15 17:47 W 16 G 23 10.00 A Few Clouds FEW010 FEW070 71.6 60.8 69% 29.93 0.0
15 16:47 W 18 10.00 A Few Clouds FEW070 73.4 62.6 69% 29.93 0.0
15 15:47 W 22 10.00 Partly Cloudy and Breezy FEW005 SCT008 73.4 62.6 69% 29.95 0.0
15 14:47 W 18 10.00 A Few Clouds FEW010 FEW100 75.2 62.6 65% 77 29.96 0.0
15 13:47 W 17 10.00 Partly Cloudy FEW016 SCT150 75.2 62.6 65% 77 29.98 0.0
15 12:47 W 14 10.00 Partly Cloudy FEW014 SCT100 75.2 62.6 65% 77 30.01 0.0
15 11:50 W 13 9.00 Partly Cloudy SCT140 75.2 62.6 65% 77 30.03 0.0
15 10:47 W 8 7.00 Partly Cloudy FEW011 SCT140 75.2 62.6 65% 77 30.05 0.0
15 09:49 NW 3 6.00 A Few Clouds with Haze FEW012 73.4 62.6 69% 30.06 0.0
15 08:49 Calm 7.00 Mostly Cloudy BKN013 69.8 60.8 73% 30.07 0.0
15 07:48 W 5 7.00 Overcast OVC010 66.2 60.8 83% 30.07 0.0
15 06:53 W 8 7.00 Overcast OVC012 64.4 60.8 88% 30.05 0.0
14 19:47 W 16 10.00 A Few Clouds FEW010 FEW100 66.2 60.8 83% 30 0.0
14 18:47 W 15 10.00 A Few Clouds FEW010 FEW100 69.8 60.8 73% 30 0.0
14 17:49 W 15 10.00 A Few Clouds FEW010 FEW100 71.6 62.6 73% 30 0.0
14 16:47 W 20 10.00 A Few Clouds FEW010 FEW100 73.4 62.6 69% 30 0.0
14 15:47 W 18 10.00 A Few Clouds FEW010 FEW100 75.2 62.6 65% 77 30 0.0
14 14:50 W 15 10.00 Partly Cloudy FEW015 SCT065 77 64.4 65% 79 30.01 0.0
14 13:48 W 14 10.00 Partly Cloudy FEW018 SCT065 75.2 62.6 65% 77 30.02 0.0
14 12:47 W 12 10.00 Partly Cloudy FEW012 SCT150 75.2 62.6 65% 77 30.04 0.0
14 11:47 W 13 7.00 Mostly Cloudy with Haze SCT015 BKN045 75.2 64.4 69% 77 30.06 0.0
14 10:47 NW 6 6.00 Fog/Mist NULL 75.2 62.6 65% 77 30.07 0.0
14 09:52 W 6 6.00 Fog/Mist FEW011 BKN019 71.6 62.6 73% 30.07 0.0
14 08:47 Calm 4.00 Fog/Mist OVC009 69.8 62.6 78% 30.08 0.0
14 07:50 SE 3 4.00 Fog/Mist OVC009 66.2 62.6 88% 30.08 0.0
14 06:58 W 5 3.00 Fog/Mist OVC009 64.4 62.6 94% 30.05 0.0
13 19:47 W 14 10.00 A Few Clouds FEW015 FEW150 64.4 60.8 88% 29.96 0.0
13 18:47 W 13 10.00 A Few Clouds FEW008 FEW150 68 60.8 78% 29.95 0.0
13 17:47 W 15 10.00 Partly Cloudy FEW010 SCT070 71.6 62.6 73% 29.93 0.0
13 16:49 W 15 10.00 Partly Cloudy FEW016 SCT190 73.4 62.6 69% 29.93 0.0
13 15:49 W 10 10.00 Partly Cloudy FEW020 SCT120 75.2 62.6 65% 77 29.94 0.0
13 14:47 W 15 10.00 A Few Clouds FEW020 77 64.4 65% 79 29.94 0.0
13 13:47 W 14 G 20 10.00 Partly Cloudy FEW018 SCT020 75.2 64.4 69% 77 29.95 0.0
13 12:47 W 10 10.00 Partly Cloudy FEW018 SCT150 77 64.4 65% 79 29.96 0.0
13 11:53 E 3 8.00 Partly Cloudy SCT018 75.2 60.8 61% 77 29.99 0.0
13 10:55 E 8 7.00 Fog/Mist BKN015 71.6 62.6 73% 30 0.0
13 10:18 Calm 4.00 Fog/Mist BKN011 71.6 62.6 73% 29.99 0.0
Date Time (pdt) Wind (mph) Vis. (mi.) Weather Sky Cond. Air Dwpt Max. Min. Relative Humidity Wind Chill (°F) Heat Index (°F) altimeter (in) sea level (mb) 1 hr 3 hr 6 hr
6 hour
Temperature (ºF) Pressure Precipitation (in)